,,PA_Meas_PMT16A,,PR_Meas_QMR101_102,,RH_Meas_QMH101,,SR_Meas_QMS101,,TA_Meas_QMH101,,GenWind,,GenWind,
time,status,PA,status,PR,status,RH,status,SR,status,TA,status,DirAvg,status,SpdAvg,
2013-05-25, 00:00:05,VALID,918.893,VALID,0,VALID,94.2712,VALID,0,VALID,20.8324,VALID,12,VALID,0,
2013-05-25, 00:01:05,VALID,918.875,VALID,0,VALID,94.3093,VALID,0,VALID,20.8535,VALID,12,VALID,0,
2013-05-25, 00:02:05,VALID,918.855,VALID,0,VALID,94.2407,VALID,0,VALID,20.8746,VALID,12,VALID,0,
2013-05-25, 00:03:05,VALID,918.881,VALID,0,VALID,94.2026,VALID,0,VALID,20.8535,VALID,12,VALID,0,
2013-05-25, 00:04:05,VALID,918.874,VALID,0,VALID,94.2559,VALID,0,VALID,20.873,VALID,12,VALID,0,
2013-05-25, 00:05:05,VALID,918.845,VALID,0,VALID,94.2559,VALID,0,VALID,20.873,VALID,12,VALID,0,
2013-05-25, 00:06:05,VALID,918.806,VALID,0,VALID,94.1797,VALID,0,VALID,20.873,VALID,12,VALID,0,
2013-05-25, 00:07:05,VALID,918.811,VALID,0,VALID,94.073,VALID,0,VALID,20.8519,VALID,12,VALID,0,
2013-05-25, 00:08:05,VALID,918.82,VALID,0,VALID,94.0425,VALID,0,VALID,20.8535,VALID,12,VALID,0,
2013-05-25, 00:09:05,VALID,918.81,VALID,0,VALID,93.9815,VALID,0,VALID,20.8535,VALID,12,VALID,0,
2013-05-25, 00:10:05,VALID,918.815,VALID,0,VALID,93.9738,VALID,0,VALID,20.834,VALID,12,VALID,0,
2013-05-25, 00:11:05,VALID,918.86,VALID,0,VALID,93.9891,VALID,0,VALID,20.8535,VALID,12,VALID,0,
2013-05-25, 00:12:05,VALID,918.868,VALID,0,VALID,93.9662,VALID,0,VALID,20.8746,VALID,12,VALID,0,
2013-05-25, 00:13:05,VALID,918.841,VALID,0,VALID,93.9967,VALID,0,VALID,20.8746,VALID,12,VALID,0,
2013-05-25, 00:14:05,VALID,918.854,VALID,0,VALID,93.9815,VALID,0,VALID,20.8535,VALID,12,VALID,0,
2013-05-25, 00:15:05,VALID,918.853,VALID,0,VALID,93.9281,VALID,0,VALID,20.8519,VALID,12,VALID,0,
2013-05-25, 00:16:05,VALID,918.855,VALID,0,VALID,93.8671,VALID,0,VALID,20.8535,VALID,12,VALID,0,
2013-05-25, 00:17:05,VALID,918.847,VALID,0,VALID,93.8443,VALID,0,VALID,20.8535,VALID,13,VALID,0,
2013-05-25, 00:18:05,VALID,918.867,VALID,0,VALID,93.8366,VALID,0,VALID,20.834,VALID,12,VALID,0,
2013-05-25, 00:19:05,VALID,918.878,VALID,0,VALID,93.8671,VALID,0,VALID,20.834,VALID,12,VALID,0,
2013-05-25, 00:20:05,VALID,918.845,VALID,0,VALID,93.8747,VALID,0,VALID,20.8145,VALID,12,VALID,0,
2013-05-25, 00:21:05,VALID,918.85,VALID,0,VALID,93.8824,VALID,0,VALID,20.8145,VALID,12,VALID,0,
2013-05-25, 00:22:05,VALID,918.846,VALID,0,VALID,93.89,VALID,0,VALID,20.8356,VALID,12,VALID,0,
2013-05-25, 00:23:05,VALID,918.809,VALID,0,VALID,93.8747,VALID,0,VALID,20.8145,VALID,12,VALID,0,
2013-05-25, 00:24:05,VALID,918.803,VALID,0,VALID,93.9052,VALID,0,VALID,20.8145,VALID,12,VALID,0,
2013-05-25, 00:25:05,VALID,918.8,VALID,0,VALID,93.9205,VALID,0,VALID,20.8145,VALID,13,VALID,0,
2013-05-25, 00:26:05,VALID,918.75,VALID,0,VALID,93.9052,VALID,0,VALID,20.8145,VALID,12,VALID,0,
2013-05-25, 00:27:05,VALID,918.73,VALID,0,VALID,93.9891,VALID,0,VALID,20.834,VALID,12,VALID,0,
2013-05-25, 00:28:05,VALID,918.75,VALID,0,VALID,93.9815,VALID,0,VALID,20.8535,VALID,12,VALID,0,
2013-05-25, 00:29:05,VALID,918.733,VALID,0,VALID,93.9357,VALID,0,VALID,20.8535,VALID,12,VALID,0,
2013-05-25, 00:30:05,VALID,918.734,VALID,0,VALID,93.9205,VALID,0,VALID,20.873,VALID,12,VALID,0,
2013-05-25, 00:31:04,VALID,918.722,VALID,0,VALID,93.7833,VALID,0,VALID,20.8535,VALID,12,VALID,0,
2013-05-25, 00:32:04,VALID,918.724,VALID,0,VALID,93.6613,VALID,0,VALID,20.8746,VALID,12,VALID,0,
2013-05-25, 00:33:04,VALID,918.723,VALID,0,VALID,93.4783,VALID,0,VALID,20.873,VALID,12,VALID,0,
2013-05-25, 00:34:04,VALID,918.725,VALID,0,VALID,93.364,VALID,0,VALID,20.8925,VALID,12,VALID,0,
2013-05-25, 00:35:04,VALID,918.703,VALID,0,VALID,93.2801,VALID,0,VALID,20.912,VALID,12,VALID,0,
2013-05-25, 00:36:04,VALID,918.749,VALID,0,VALID,93.1734,VALID,0,VALID,20.9331,VALID,12,VALID,0,
2013-05-25, 00:37:04,VALID,918.727,VALID,0,VALID,93.0972,VALID,0,VALID,20.912,VALID,12,VALID,0,
2013-05-25, 00:38:04,VALID,918.751,VALID,0,VALID,93.0438,VALID,0,VALID,20.9527,VALID,12,VALID,0,
2013-05-25, 00:39:04,VALID,918.765,VALID,0,VALID,92.9676,VALID,0,VALID,20.9316,VALID,12,VALID,0,
2013-05-25, 00:40:04,VALID,918.745,VALID,0,VALID,92.9371,VALID,0,VALID,20.9722,VALID,12,VALID,0,
2013-05-25, 00:41:04,VALID,918.738,VALID,0,VALID,92.9599,VALID,0,VALID,20.9511,VALID,12,VALID,0,
2013-05-25, 00:42:04,VALID,918.742,VALID,0,VALID,92.8685,VALID,0,VALID,20.9511,VALID,12,VALID,0,
2013-05-25, 00:43:04,VALID,918.775,VALID,0,VALID,92.8608,VALID,0,VALID,20.9511,VALID,12,VALID,0,
2013-05-25, 00:44:04,VALID,918.736,VALID,0,VALID,92.8456,VALID,0,VALID,20.9511,VALID,12,VALID,0,
2013-05-25, 00:45:04,VALID,918.77,VALID,0,VALID,92.8608,VALID,0,VALID,20.9511,VALID,12,VALID,0,
2013-05-25, 00:46:04,VALID,918.791,VALID,0,VALID,92.9066,VALID,0,VALID,20.9331,VALID,12,VALID,0,
2013-05-25, 00:47:04,VALID,918.818,VALID,0,VALID,93.1048,VALID,0,VALID,20.912,VALID,12,VALID,0,
2013-05-25, 00:48:04,VALID,918.837,VALID,0,VALID,93.2954,VALID,0,VALID,20.9136,VALID,12,VALID,0,
2013-05-25, 00:49:04,VALID,918.828,VALID,0,VALID,93.425,VALID,0,VALID,20.873,VALID,12,VALID,0,
2013-05-25, 00:50:04,VALID,918.824,VALID,0,VALID,93.5546,VALID,0,VALID,20.8535,VALID,12,VALID,0,
2013-05-25, 00:51:04,VALID,918.861,VALID,0,VALID,93.6765,VALID,0,VALID,20.834,VALID,12,VALID,0,
2013-05-25, 00:52:04,VALID,918.839,VALID,0,VALID,93.829,VALID,0,VALID,20.8356,VALID,12,VALID,0,
2013-05-25, 00:53:04,VALID,918.84,VALID,0,VALID,93.9891,VALID,0,VALID,20.8145,VALID,12,VALID,0,
2013-05-25, 00:54:04,VALID,918.878,VALID,0,VALID,94.1111,VALID,0,VALID,20.8161,VALID,12,VALID,0,
2013-05-25, 00:55:04,VALID,918.848,VALID,0,VALID,94.233,VALID,0,VALID,20.795,VALID,12,VALID,0,
2013-05-25, 00:56:04,VALID,918.834,VALID,0,VALID,94.416,VALID,0,VALID,20.8161,VALID,125,VALID,0,
2013-05-25, 00:57:04,VALID,918.83,VALID,0,VALID,94.5609,VALID,0,VALID,20.795,VALID,124,VALID,0,
2013-05-25, 00:58:04,VALID,918.833,VALID,0,VALID,94.6142,VALID,0,VALID,20.7544,VALID,130,VALID,0,
2013-05-25, 00:59:04,VALID,918.776,VALID,0,VALID,94.7286,VALID,0,VALID,20.756,VALID,139,VALID,0,
2013-05-25, 01:00:04,VALID,918.8,VALID,0,VALID,94.8429,VALID,0,VALID,20.7576,VALID,138,VALID,0,
2013-05-25, 01:01:04,VALID,918.789,VALID,0,VALID,94.9573,VALID,0,VALID,20.7381,VALID,129,VALID,0,
2013-05-25, 01:02:04,VALID,918.807,VALID,0,VALID,95.0488,VALID,0,VALID,20.699,VALID,131,VALID,0,
2013-05-25, 01:03:04,VALID,918.783,VALID,0,VALID,95.1707,VALID,0,VALID,20.6795,VALID,119,VALID,0,
2013-05-25, 01:04:04,VALID,918.808,VALID,0,VALID,95.2927,VALID,0,VALID,20.6795,VALID,136,VALID,0,
2013-05-25, 01:05:04,VALID,918.81,VALID,0,VALID,95.3842,VALID,0,VALID,20.66,VALID,128,VALID,0,
2013-05-25, 01:06:04,VALID,918.81,VALID,0,VALID,95.4528,VALID,0,VALID,20.639,VALID,131,VALID,0,
2013-05-25, 01:07:04,VALID,918.782,VALID,0.2,VALID,95.5138,VALID,0,VALID,20.639,VALID,155,VALID,0,
2013-05-25, 01:08:04,VALID,918.775,VALID,0,VALID,95.529,VALID,0,VALID,20.6194,VALID,128,VALID,0,
2013-05-25, 01:09:04,VALID,918.793,VALID,0,VALID,95.59,VALID,0,VALID,20.6194,VALID,120,VALID,0,
2013-05-25, 01:10:04,VALID,918.794,VALID,0,VALID,95.6434,VALID,0,VALID,20.6194,VALID,120,VALID,0,
2013-05-25, 01:11:04,VALID,918.824,VALID,0,VALID,95.6891,VALID,0.107441,VALID,20.5984,VALID,120,VALID,0,
2013-05-25, 01:12:04,VALID,918.818,VALID,0,VALID,95.712,VALID,0,VALID,20.5999,VALID,125,VALID,0,
2013-05-25, 01:13:04,VALID,918.833,VALID,0,VALID,95.7349,VALID,0,VALID,20.5789,VALID,125,VALID,0,
2013-05-25, 01:14:04,VALID,918.848,VALID,0,VALID,95.7501,VALID,0,VALID,20.6194,VALID,125,VALID,0,
2013-05-25, 01:15:04,VALID,918.861,VALID,0,VALID,95.773,VALID,0,VALID,20.621,VALID,125,VALID,0,
2013-05-25, 01:16:04,VALID,918.836,VALID,0,VALID,95.7882,VALID,0,VALID,20.5999,VALID,125,VALID,0,
2013-05-25, 01:17:04,VALID,918.853,VALID,0,VALID,95.773,VALID,0,VALID,20.621,VALID,125,VALID,0,
2013-05-25, 01:18:04,VALID,918.862,VALID,0,VALID,95.8035,VALID,0,VALID,20.6194,VALID,125,VALID,0,
2013-05-25, 01:19:04,VALID,918.858,VALID,0,VALID,95.8645,VALID,0,VALID,20.6795,VALID,125,VALID,0,
2013-05-25, 01:20:04,VALID,918.856,VALID,0.2,VALID,95.8873,VALID,0,VALID,20.699,VALID,125,VALID,0,
2013-05-25, 01:21:04,VALID,918.857,VALID,0,VALID,95.9178,VALID,0,VALID,20.6975,VALID,125,VALID,0,
2013-05-25, 01:22:04,VALID,918.83,VALID,0,VALID,95.895,VALID,0,VALID,20.699,VALID,125,VALID,0,
2013-05-25, 01:23:04,VALID,918.849,VALID,0,VALID,95.8645,VALID,0,VALID,20.6585,VALID,125,VALID,0,
2013-05-25, 01:24:04,VALID,918.842,VALID,0,VALID,95.8035,VALID,0,VALID,20.6585,VALID,125,VALID,0,
2013-05-25, 01:25:04,VALID,918.855,VALID,0,VALID,95.773,VALID,0,VALID,20.6585,VALID,125,VALID,0,
2013-05-25, 01:26:04,VALID,918.845,VALID,0,VALID,95.7577,VALID,0,VALID,20.639,VALID,125,VALID,0,
2013-05-25, 01:27:04,VALID,918.842,VALID,0,VALID,95.7806,VALID,0,VALID,20.66,VALID,125,VALID,0,
2013-05-25, 01:28:04,VALID,918.838,VALID,0,VALID,95.7577,VALID,0,VALID,20.6405,VALID,125,VALID,0,
2013-05-25, 01:29:04,VALID,918.816,VALID,0,VALID,95.7577,VALID,0,VALID,20.5999,VALID,123,VALID,0,
2013-05-25, 01:30:04,VALID,918.796,VALID,0,VALID,95.7272,VALID,0,VALID,20.5804,VALID,119,VALID,0,
2013-05-25, 01:31:04,VALID,918.783,VALID,0.2,VALID,95.7196,VALID,0,VALID,20.5804,VALID,113,VALID,0,
2013-05-25, 01:32:04,VALID,918.784,VALID,0,VALID,95.7196,VALID,0,VALID,20.5804,VALID,105,VALID,0,
2013-05-25, 01:33:04,VALID,918.764,VALID,0,VALID,95.6739,VALID,0,VALID,20.5609,VALID,105,VALID,0,
2013-05-25, 01:34:04,VALID,918.73,VALID,0,VALID,95.6891,VALID,0,VALID,20.5804,VALID,106,VALID,0,
2013-05-25, 01:35:04,VALID,918.708,VALID,0,VALID,95.6815,VALID,0,VALID,20.5804,VALID,106,VALID,0,
2013-05-25, 01:36:04,VALID,918.687,VALID,0,VALID,95.6662,VALID,0,VALID,20.5609,VALID,106,VALID,0,
2013-05-25, 01:37:04,VALID,918.637,VALID,0,VALID,95.6434,VALID,0,VALID,20.5414,VALID,106,VALID,0,
2013-05-25, 01:38:04,VALID,918.612,VALID,0,VALID,95.6205,VALID,0,VALID,20.5414,VALID,106,VALID,0,
2013-05-25, 01:39:04,VALID,918.609,VALID,0.2,VALID,95.6129,VALID,0,VALID,20.5414,VALID,107,VALID,0,
2013-05-25, 01:40:04,VALID,918.58,VALID,0,VALID,95.5748,VALID,0,VALID,20.5414,VALID,107,VALID,0,
2013-05-25, 01:41:04,VALID,918.581,VALID,0,VALID,95.5748,VALID,0,VALID,20.5625,VALID,107,VALID,0,
2013-05-25, 01:42:04,VALID,918.554,VALID,0,VALID,95.529,VALID,0,VALID,20.5625,VALID,107,VALID,0,
2013-05-25, 01:43:04,VALID,918.502,VALID,0,VALID,95.5671,VALID,0,VALID,20.5219,VALID,107,VALID,0,
2013-05-25, 01:44:04,VALID,918.495,VALID,0,VALID,95.5824,VALID,0,VALID,20.5414,VALID,117,VALID,0,
2013-05-25, 01:45:04,VALID,918.476,VALID,0,VALID,95.59,VALID,0,VALID,20.5414,VALID,121,VALID,0,
2013-05-25, 01:46:04,VALID,918.469,VALID,0,VALID,95.6129,VALID,0,VALID,20.5414,VALID,131,VALID,0,
2013-05-25, 01:47:04,VALID,918.458,VALID,0,VALID,95.651,VALID,0,VALID,20.5235,VALID,131,VALID,0,
2013-05-25, 01:48:04,VALID,918.422,VALID,0.2,VALID,95.7196,VALID,0,VALID,20.5024,VALID,148,VALID,0,
2013-05-25, 01:49:04,VALID,918.416,VALID,0,VALID,95.8111,VALID,0,VALID,20.5024,VALID,151,VALID,0,
2013-05-25, 01:50:04,VALID,918.397,VALID,0,VALID,95.8721,VALID,0,VALID,20.5219,VALID,151,VALID,0,
2013-05-25, 01:51:04,VALID,918.382,VALID,0,VALID,95.9178,VALID,0,VALID,20.504,VALID,151,VALID,0,
2013-05-25, 01:52:04,VALID,918.379,VALID,0,VALID,95.9483,VALID,0,VALID,20.4829,VALID,142,VALID,0,
2013-05-25, 01:53:04,VALID,918.329,VALID,0,VALID,96.0017,VALID,0,VALID,20.4829,VALID,131,VALID,0,
2013-05-25, 01:54:04,VALID,918.284,VALID,0,VALID,96.055,VALID,0,VALID,20.4829,VALID,188,VALID,0,
2013-05-25, 01:55:04,VALID,918.277,VALID,0,VALID,96.1084,VALID,0,VALID,20.5024,VALID,166,VALID,0,
2013-05-25, 01:56:04,VALID,918.289,VALID,0,VALID,96.1465,VALID,0,VALID,20.5219,VALID,136,VALID,0,
2013-05-25, 01:57:04,VALID,918.293,VALID,0,VALID,96.1694,VALID,0,VALID,20.5024,VALID,136,VALID,0,
2013-05-25, 01:58:04,VALID,918.274,VALID,0.2,VALID,96.1923,VALID,0,VALID,20.504,VALID,136,VALID,0,
2013-05-25, 01:59:04,VALID,918.234,VALID,0,VALID,96.2075,VALID,0,VALID,20.4829,VALID,136,VALID,0,
2013-05-25, 02:00:04,VALID,918.248,VALID,0,VALID,96.2228,VALID,0,VALID,20.4845,VALID,136,VALID,0,
2013-05-25, 02:01:04,VALID,918.233,VALID,0,VALID,96.2533,VALID,0,VALID,20.4634,VALID,136,VALID,0,
2013-05-25, 02:02:04,VALID,918.237,VALID,0,VALID,96.2456,VALID,0,VALID,20.4845,VALID,146,VALID,0,
2013-05-25, 02:03:04,VALID,918.234,VALID,0,VALID,96.2761,VALID,0,VALID,20.4634,VALID,128,VALID,0,
2013-05-25, 02:04:04,VALID,918.24,VALID,0,VALID,96.299,VALID,0,VALID,20.4439,VALID,128,VALID,0,
2013-05-25, 02:05:04,VALID,918.207,VALID,0,VALID,96.2761,VALID,0,VALID,20.4439,VALID,138,VALID,0,
2013-05-25, 02:06:04,VALID,918.206,VALID,0,VALID,96.2914,VALID,0,VALID,20.4244,VALID,125,VALID,0,
2013-05-25, 02:07:04,VALID,918.221,VALID,0,VALID,96.2761,VALID,0,VALID,20.4244,VALID,139,VALID,0,
2013-05-25, 02:08:04,VALID,918.225,VALID,0,VALID,96.3219,VALID,0,VALID,20.4454,VALID,136,VALID,0,
2013-05-25, 02:09:04,VALID,918.228,VALID,0.2,VALID,96.3142,VALID,0,VALID,20.4244,VALID,136,VALID,0,
2013-05-25, 02:10:04,VALID,918.214,VALID,0,VALID,96.3142,VALID,0,VALID,20.4454,VALID,128,VALID,0,
2013-05-25, 02:11:04,VALID,918.203,VALID,0,VALID,96.3371,VALID,0,VALID,20.4454,VALID,131,VALID,0,
2013-05-25, 02:12:04,VALID,918.221,VALID,0,VALID,96.3219,VALID,0,VALID,20.4244,VALID,125,VALID,0,
2013-05-25, 02:13:04,VALID,918.234,VALID,0,VALID,96.3295,VALID,0,VALID,20.4259,VALID,116,VALID,0,
2013-05-25, 02:14:04,VALID,918.222,VALID,0,VALID,96.3524,VALID,0,VALID,20.4259,VALID,115,VALID,0,
2013-05-25, 02:15:04,VALID,918.216,VALID,0,VALID,96.3371,VALID,0,VALID,20.4049,VALID,130,VALID,0,
2013-05-25, 02:16:04,VALID,918.216,VALID,0.2,VALID,96.3676,VALID,0,VALID,20.4049,VALID,120,VALID,0,
2013-05-25, 02:17:04,VALID,918.196,VALID,0,VALID,96.3676,VALID,0,VALID,20.3854,VALID,136,VALID,0,
2013-05-25, 02:18:04,VALID,918.187,VALID,0,VALID,96.4133,VALID,0,VALID,20.4049,VALID,136,VALID,0,
2013-05-25, 02:19:04,VALID,918.183,VALID,0,VALID,96.4057,VALID,0,VALID,20.3854,VALID,143,VALID,0,
2013-05-25, 02:20:04,VALID,918.139,VALID,0,VALID,96.421,VALID,0,VALID,20.3854,VALID,135,VALID,0,
2013-05-25, 02:21:04,VALID,918.151,VALID,0,VALID,96.4667,VALID,0,VALID,20.3854,VALID,156,VALID,0,
2013-05-25, 02:22:04,VALID,918.141,VALID,0,VALID,96.4515,VALID,0,VALID,20.4049,VALID,143,VALID,0,
2013-05-25, 02:23:04,VALID,918.113,VALID,0,VALID,96.4667,VALID,0,VALID,20.4049,VALID,145,VALID,0,
2013-05-25, 02:24:04,VALID,918.135,VALID,0.2,VALID,96.4591,VALID,0,VALID,20.3838,VALID,147,VALID,0,
2013-05-25, 02:25:04,VALID,918.106,VALID,0,VALID,96.4591,VALID,0,VALID,20.3854,VALID,144,VALID,0,
2013-05-25, 02:26:04,VALID,918.162,VALID,0,VALID,96.4743,VALID,0,VALID,20.4064,VALID,135,VALID,0,
2013-05-25, 02:27:04,VALID,918.147,VALID,0,VALID,96.4819,VALID,0,VALID,20.3659,VALID,126,VALID,0,
2013-05-25, 02:28:04,VALID,918.164,VALID,0,VALID,96.4591,VALID,0,VALID,20.3659,VALID,127,VALID,0,
2013-05-25, 02:29:04,VALID,918.171,VALID,0,VALID,96.4896,VALID,0,VALID,20.3869,VALID,120,VALID,0,
2013-05-25, 02:30:04,VALID,918.162,VALID,0,VALID,96.4972,VALID,0,VALID,20.3659,VALID,114,VALID,0,
2013-05-25, 02:31:04,VALID,918.172,VALID,0.2,VALID,96.5124,VALID,0,VALID,20.3659,VALID,114,VALID,0,
2013-05-25, 02:32:04,VALID,918.195,VALID,0,VALID,96.5048,VALID,0,VALID,20.3854,VALID,141,VALID,0,
2013-05-25, 02:33:04,VALID,918.174,VALID,0,VALID,96.4972,VALID,0,VALID,20.3659,VALID,136,VALID,0,
2013-05-25, 02:34:04,VALID,918.176,VALID,0,VALID,96.5124,VALID,0,VALID,20.3659,VALID,137,VALID,0,
2013-05-25, 02:35:04,VALID,918.183,VALID,0,VALID,96.5124,VALID,0,VALID,20.4064,VALID,140,VALID,0,
2013-05-25, 02:36:04,VALID,918.162,VALID,0,VALID,96.5124,VALID,0,VALID,20.3659,VALID,140,VALID,0,
2013-05-25, 02:37:04,VALID,918.194,VALID,0,VALID,96.5277,VALID,0,VALID,20.3659,VALID,137,VALID,0,
2013-05-25, 02:38:04,VALID,918.175,VALID,0,VALID,96.5201,VALID,0.107441,VALID,20.3869,VALID,137,VALID,0,
2013-05-25, 02:39:04,VALID,918.164,VALID,0,VALID,96.5048,VALID,0,VALID,20.3659,VALID,137,VALID,0,
2013-05-25, 02:40:04,VALID,918.14,VALID,0.2,VALID,96.5277,VALID,0,VALID,20.3674,VALID,127,VALID,0,
2013-05-25, 02:41:04,VALID,918.144,VALID,0,VALID,96.5201,VALID,0,VALID,20.3464,VALID,131,VALID,0,
2013-05-25, 02:42:04,VALID,918.113,VALID,0,VALID,96.4972,VALID,0,VALID,20.3269,VALID,131,VALID,0,
2013-05-25, 02:43:04,VALID,918.132,VALID,0,VALID,96.5048,VALID,0,VALID,20.3479,VALID,131,VALID,0,
2013-05-25, 02:44:04,VALID,918.114,VALID,0,VALID,96.5124,VALID,0,VALID,20.3269,VALID,131,VALID,0,
2013-05-25, 02:45:04,VALID,918.118,VALID,0,VALID,96.5201,VALID,0,VALID,20.3074,VALID,129,VALID,0,
2013-05-25, 02:46:04,VALID,918.145,VALID,0,VALID,96.5201,VALID,0,VALID,20.3284,VALID,117,VALID,0,
2013-05-25, 02:47:04,VALID,918.135,VALID,0,VALID,96.5201,VALID,0,VALID,20.3284,VALID,115,VALID,0,
2013-05-25, 02:48:04,VALID,918.131,VALID,0,VALID,96.5277,VALID,0,VALID,20.3074,VALID,122,VALID,0,
2013-05-25, 02:49:04,VALID,918.138,VALID,0.2,VALID,96.5429,VALID,0.107441,VALID,20.3074,VALID,116,VALID,0,
2013-05-25, 02:50:04,VALID,918.148,VALID,0,VALID,96.5506,VALID,0,VALID,20.3074,VALID,112,VALID,0,
2013-05-25, 02:51:04,VALID,918.158,VALID,0,VALID,96.5658,VALID,0,VALID,20.3089,VALID,132,VALID,0,
2013-05-25, 02:52:04,VALID,918.168,VALID,0,VALID,96.5887,VALID,0,VALID,20.2879,VALID,131,VALID,0,
2013-05-25, 02:53:04,VALID,918.158,VALID,0,VALID,96.5811,VALID,0,VALID,20.2879,VALID,120,VALID,0,
2013-05-25, 02:54:04,VALID,918.216,VALID,0,VALID,96.5963,VALID,0,VALID,20.2879,VALID,116,VALID,0,
2013-05-25, 02:55:04,VALID,918.201,VALID,0,VALID,96.6039,VALID,0,VALID,20.2879,VALID,132,VALID,0,
2013-05-25, 02:56:04,VALID,918.181,VALID,0,VALID,96.6039,VALID,0,VALID,20.2684,VALID,123,VALID,0,
2013-05-25, 02:57:04,VALID,918.18,VALID,0.2,VALID,96.6115,VALID,0,VALID,20.2684,VALID,147,VALID,0,
2013-05-25, 02:58:04,VALID,918.176,VALID,0,VALID,96.6344,VALID,0,VALID,20.2894,VALID,135,VALID,0,
2013-05-25, 02:59:04,VALID,918.16,VALID,0,VALID,96.6192,VALID,0,VALID,20.2879,VALID,140,VALID,0,
2013-05-25, 03:00:04,VALID,918.147,VALID,0,VALID,96.6497,VALID,0,VALID,20.3074,VALID,143,VALID,0,
2013-05-25, 03:01:04,VALID,918.151,VALID,0,VALID,96.6573,VALID,0,VALID,20.2879,VALID,143,VALID,0,
2013-05-25, 03:02:04,VALID,918.146,VALID,0,VALID,96.642,VALID,0,VALID,20.2879,VALID,143,VALID,0,
2013-05-25, 03:03:04,VALID,918.155,VALID,0,VALID,96.6497,VALID,0,VALID,20.2879,VALID,120,VALID,0,
2013-05-25, 03:04:04,VALID,918.171,VALID,0,VALID,96.6649,VALID,0,VALID,20.2894,VALID,137,VALID,0,
2013-05-25, 03:05:04,VALID,918.198,VALID,0.2,VALID,96.6802,VALID,0,VALID,20.2684,VALID,141,VALID,0,
2013-05-25, 03:06:04,VALID,918.208,VALID,0,VALID,96.6497,VALID,0,VALID,20.2489,VALID,140,VALID,0,
2013-05-25, 03:07:04,VALID,918.203,VALID,0,VALID,96.642,VALID,0,VALID,20.2489,VALID,113,VALID,0,
2013-05-25, 03:08:04,VALID,918.241,VALID,0,VALID,96.6344,VALID,0,VALID,20.2489,VALID,136,VALID,0,
2013-05-25, 03:09:04,VALID,918.216,VALID,0,VALID,96.6573,VALID,0,VALID,20.2489,VALID,118,VALID,0,
2013-05-25, 03:10:04,VALID,918.268,VALID,0,VALID,96.6649,VALID,0,VALID,20.2489,VALID,121,VALID,0,
2013-05-25, 03:11:04,VALID,918.24,VALID,0,VALID,96.6497,VALID,0,VALID,20.2293,VALID,122,VALID,0,
2013-05-25, 03:12:04,VALID,918.261,VALID,0,VALID,96.642,VALID,0,VALID,20.2504,VALID,120,VALID,0,
2013-05-25, 03:13:04,VALID,918.262,VALID,0.2,VALID,96.6573,VALID,0,VALID,20.2489,VALID,159,VALID,0,
2013-05-25, 03:14:04,VALID,918.253,VALID,0,VALID,96.6573,VALID,0,VALID,20.2489,VALID,159,VALID,0,
2013-05-25, 03:15:04,VALID,918.263,VALID,0,VALID,96.6802,VALID,0,VALID,20.2489,VALID,140,VALID,0,
2013-05-25, 03:16:04,VALID,918.268,VALID,0,VALID,96.6802,VALID,0,VALID,20.2489,VALID,140,VALID,0,
2013-05-25, 03:17:04,VALID,918.297,VALID,0,VALID,96.6802,VALID,0,VALID,20.2293,VALID,141,VALID,0,
2013-05-25, 03:18:04,VALID,918.261,VALID,0,VALID,96.6725,VALID,0,VALID,20.2293,VALID,152,VALID,0,
2013-05-25, 03:19:04,VALID,918.285,VALID,0,VALID,96.6954,VALID,0,VALID,20.2504,VALID,154,VALID,0,
2013-05-25, 03:20:04,VALID,918.296,VALID,0,VALID,96.6649,VALID,0,VALID,20.2098,VALID,142,VALID,0,
2013-05-25, 03:21:04,VALID,918.317,VALID,0,VALID,96.6878,VALID,0,VALID,20.2309,VALID,141,VALID,0,
2013-05-25, 03:22:04,VALID,918.31,VALID,0,VALID,96.6802,VALID,0,VALID,20.1919,VALID,141,VALID,0,
2013-05-25, 03:23:04,VALID,918.319,VALID,0.2,VALID,96.6725,VALID,0,VALID,20.1708,VALID,141,VALID,0,
2013-05-25, 03:24:04,VALID,918.297,VALID,0,VALID,96.6878,VALID,0,VALID,20.1903,VALID,141,VALID,0,
2013-05-25, 03:25:04,VALID,918.315,VALID,0,VALID,96.6954,VALID,0,VALID,20.1513,VALID,126,VALID,0,
2013-05-25, 03:26:04,VALID,918.356,VALID,0,VALID,96.6878,VALID,0,VALID,20.1513,VALID,133,VALID,0,
2013-05-25, 03:27:04,VALID,918.327,VALID,0,VALID,96.6725,VALID,0,VALID,20.1318,VALID,141,VALID,0,
2013-05-25, 03:28:04,VALID,918.288,VALID,0,VALID,96.6802,VALID,0,VALID,20.1529,VALID,143,VALID,0,
2013-05-25, 03:29:04,VALID,918.326,VALID,0,VALID,96.6954,VALID,0,VALID,20.1123,VALID,126,VALID,0,
2013-05-25, 03:30:04,VALID,918.331,VALID,0,VALID,96.703,VALID,0,VALID,20.0928,VALID,132,VALID,0,
2013-05-25, 03:31:04,VALID,918.317,VALID,0,VALID,96.6878,VALID,0,VALID,20.0928,VALID,117,VALID,0,
2013-05-25, 03:32:04,VALID,918.309,VALID,0,VALID,96.6878,VALID,0,VALID,20.0733,VALID,118,VALID,0,
2013-05-25, 03:33:04,VALID,918.282,VALID,0,VALID,96.6878,VALID,0,VALID,20.0928,VALID,121,VALID,0,
2013-05-25, 03:34:04,VALID,918.3,VALID,0,VALID,96.6954,VALID,0,VALID,20.0944,VALID,120,VALID,0,
2013-05-25, 03:35:04,VALID,918.282,VALID,0,VALID,96.6802,VALID,0,VALID,20.0538,VALID,122,VALID,0,
2013-05-25, 03:36:04,VALID,918.275,VALID,0,VALID,96.6725,VALID,0,VALID,20.0343,VALID,151,VALID,0,
2013-05-25, 03:37:04,VALID,918.249,VALID,0,VALID,96.6725,VALID,0,VALID,20.0343,VALID,140,VALID,0,
2013-05-25, 03:38:04,VALID,918.265,VALID,0,VALID,96.6573,VALID,0,VALID,20.0358,VALID,149,VALID,0,
2013-05-25, 03:39:04,VALID,918.277,VALID,0,VALID,96.6725,VALID,0,VALID,20.0358,VALID,146,VALID,0,
2013-05-25, 03:40:04,VALID,918.255,VALID,0,VALID,96.6573,VALID,0,VALID,20.0163,VALID,138,VALID,0,
2013-05-25, 03:41:04,VALID,918.28,VALID,0,VALID,96.6344,VALID,0,VALID,19.9968,VALID,141,VALID,0,
2013-05-25, 03:42:04,VALID,918.266,VALID,0.2,VALID,96.6344,VALID,0,VALID,19.9758,VALID,140,VALID,0,
2013-05-25, 03:43:04,VALID,918.263,VALID,0,VALID,96.6344,VALID,0,VALID,19.9758,VALID,136,VALID,0,
2013-05-25, 03:44:04,VALID,918.256,VALID,0,VALID,96.6192,VALID,0,VALID,19.9563,VALID,138,VALID,0,
2013-05-25, 03:45:04,VALID,918.226,VALID,0,VALID,96.6115,VALID,0,VALID,19.9758,VALID,138,VALID,0,
2013-05-25, 03:46:04,VALID,918.264,VALID,0,VALID,96.6268,VALID,0,VALID,19.9368,VALID,135,VALID,0,
2013-05-25, 03:47:04,VALID,918.26,VALID,0,VALID,96.6115,VALID,0,VALID,19.9368,VALID,135,VALID,0,
2013-05-25, 03:48:04,VALID,918.231,VALID,0,VALID,96.5887,VALID,0,VALID,19.9578,VALID,142,VALID,0,
2013-05-25, 03:49:04,VALID,918.227,VALID,0,VALID,96.6039,VALID,0,VALID,19.9383,VALID,128,VALID,0,
2013-05-25, 03:50:04,VALID,918.253,VALID,0,VALID,96.5734,VALID,0,VALID,19.9383,VALID,142,VALID,0,
2013-05-25, 03:51:04,VALID,918.27,VALID,0,VALID,96.5658,VALID,0,VALID,19.9383,VALID,144,VALID,0,
2013-05-25, 03:52:04,VALID,918.258,VALID,0,VALID,96.5582,VALID,0,VALID,19.9188,VALID,134,VALID,0,
2013-05-25, 03:53:04,VALID,918.239,VALID,0,VALID,96.5277,VALID,0,VALID,19.8783,VALID,121,VALID,0,
2013-05-25, 03:54:04,VALID,918.274,VALID,0,VALID,96.4743,VALID,0,VALID,19.8993,VALID,117,VALID,0,
2013-05-25, 03:55:04,VALID,918.247,VALID,0,VALID,96.4743,VALID,0,VALID,19.8783,VALID,132,VALID,0,
2013-05-25, 03:56:04,VALID,918.249,VALID,0,VALID,96.4667,VALID,0,VALID,19.8783,VALID,116,VALID,0,
2013-05-25, 03:57:04,VALID,918.265,VALID,0,VALID,96.4591,VALID,0,VALID,19.8783,VALID,130,VALID,0,
2013-05-25, 03:58:04,VALID,918.246,VALID,0,VALID,96.4286,VALID,0,VALID,19.8993,VALID,97,VALID,0,
2013-05-25, 03:59:04,VALID,918.258,VALID,0,VALID,96.4133,VALID,0,VALID,19.9188,VALID,125,VALID,0,
2013-05-25, 04:00:04,VALID,918.246,VALID,0,VALID,96.4286,VALID,0,VALID,19.9173,VALID,119,VALID,0,